Location: Unspecified
(50.1700°N, 6.8600°E)
Time: 04:17:09
(UTC+00:00)

N. Korean satellite - Pass Details

Date: 24 September 2020
Orbit: 453 x 505 km, 97.2° (Epoch: 21 October)

Event Time Altitude Azimuth Distance (km) Brightness Sun altitude
Rises 04:09:50 0° 27° (NNE) 2,604 10.9 -12.3°
Reaches altitude 10° 04:12:33 10° 49° (NE) 1,705 10.4 -11.9°
Maximum altitude 04:14:58 17° 90° (E) 1,330 10.0 -11.5°
Drops below altitude 10° 04:17:21 10° 132° (SE) 1,677 9.8 -11.2°
Sets 04:19:59 0° 154° (SSE) 2,540 10.4 -10.8°
